Montgomery, NY

7:58 AM EST on December 09, 2016 (GMT -0500)
Orange County

Weather History for KMGJ - November, 2013

Change the Weather History Date:

Saturday, November 2, 2013

  Actual Average (KSWF) Record (KSWF)
Temperature  
Mean Temperature 50 °F -  
Max Temperature 64 °F 53 °F 80 °F (1974)
Min Temperature 37 °F 35 °F 23 °F (1976)
Degree Days  
Heating Degree Days 14    
Moisture  
Dew Point 42 °F    
Average Humidity 78    
Maximum Humidity 97    
Minimum Humidity 43    
Precipitation  
Precipitation 0.01 in - - ()
Sea Level Pressure  
Sea Level Pressure 29.68 in    
Wind  
Wind Speed 2 mph (WSW)    
Max Wind Speed 13 mph    
Max Gust Speed -    
Visibility 10 miles    
Events Rain    
Averages and records for this station are not official NWS values.
T = Trace of Precipitation, MM = Missing Value Source: NWS Daily Summary

Daily Weather History Graph

Daily Weather History Graph

Search for Another Location

Airport or City:

Trip Planner

Search our weather history database for the weather conditions in past years. The results will help you decide how hot, cold, wet, or windy it might be!

Date:

Astronomy

Nov. 02, 2013 Rise Set
Actual Time 7:30 AM EDT 5:50 PM EDT
Civil Twilight 7:01 AM EDT 6:19 PM EDT
Nautical Twilight 6:28 AM EDT 6:52 PM EDT
Astronomical Twilight 5:56 AM EDT 7:24 PM EDT
Moon 6:24 AM EDT (11/2) 5:20 PM EDT (11/2)
Length of Visible Light 11h 17m
Length of Day
10h 20m
Waning Crescent, 1% of the Moon is Illuminated
Nov 2
Waning Crescent
Nov 3
New
Nov 10
First Quarter
Nov 17
Full
Nov 25
Last Quarter

Hourly Weather History & Observations

Time (EDT) Temp. Windchill Dew Point Humidity Pressure Visibility Wind Dir Wind Speed Gust Speed Precip Events Conditions
12:54 AM 41.0 °F 39.0 °F 39.9 °F 96% 29.68 in 10.0 mi South 3.5 mph - N/A   Clear
1:54 AM 39.9 °F - 37.9 °F 93% 29.67 in 10.0 mi Calm Calm - N/A   Clear
2:54 AM 39.9 °F - 39.0 °F 97% 29.68 in 10.0 mi Calm Calm - N/A   Scattered Clouds
3:54 AM 39.9 °F - 39.0 °F 97% 29.65 in 10.0 mi Calm Calm - N/A   Mostly Cloudy
4:54 AM 41.0 °F - 39.0 °F 93% 29.65 in 10.0 mi Calm Calm - N/A   Mostly Cloudy
5:54 AM 37.9 °F - 37.0 °F 97% 29.66 in 5.0 mi Calm Calm - N/A   Mostly Cloudy
6:54 AM 41.0 °F - 39.9 °F 96% 29.67 in 10.0 mi Calm Calm - N/A   Overcast
7:54 AM 43.0 °F - 41.0 °F 93% 29.68 in 10.0 mi Calm Calm - N/A   Overcast
8:54 AM 45.0 °F - 43.0 °F 93% 29.70 in 10.0 mi Calm Calm - N/A   Mostly Cloudy
9:54 AM 52.0 °F - 46.0 °F 80% 29.68 in 10.0 mi Calm Calm - N/A   Overcast
10:54 AM 57.0 °F - 46.9 °F 69% 29.67 in 10.0 mi Calm Calm - N/A   Overcast
11:54 AM 62.1 °F - 45.0 °F 53% 29.65 in 10.0 mi SSE 3.5 mph - N/A   Clear
12:54 PM 64.9 °F - 42.1 °F 43% 29.63 in 10.0 mi SSW 8.1 mph - N/A   Clear
1:54 PM 63.0 °F - 42.1 °F 46% 29.62 in 10.0 mi SSW 12.7 mph - N/A   Overcast
2:54 PM 59.0 °F - 46.9 °F 64% 29.63 in 10.0 mi Calm Calm - 0.01 in   Overcast
3:54 PM 57.9 °F - 46.0 °F 65% 29.64 in 10.0 mi NW 11.5 mph - 0.00 in Rain Light Rain
4:54 PM 55.9 °F - 46.9 °F 72% 29.65 in 10.0 mi Calm Calm - 0.00 in   Mostly Cloudy
5:54 PM 55.9 °F - 44.1 °F 64% 29.67 in 9.0 mi West 3.5 mph - N/A   Scattered Clouds
6:54 PM 48.0 °F - 45.0 °F 89% 29.70 in 10.0 mi Calm Calm - N/A   Mostly Cloudy
7:54 PM 53.1 °F - 41.0 °F 64% 29.73 in 10.0 mi West 4.6 mph - N/A   Clear
8:54 PM 52.0 °F - 39.0 °F 61% 29.74 in 10.0 mi WNW 8.1 mph - N/A   Clear
9:54 PM 50.0 °F - 39.0 °F 66% 29.76 in 10.0 mi NNW 5.8 mph - N/A   Clear
10:54 PM 42.1 °F 40.2 °F 39.0 °F 89% 29.77 in 10.0 mi West 3.5 mph - N/A   Clear
11:54 PM 39.0 °F 36.8 °F 37.0 °F 93% 29.78 in 10.0 mi SSW 3.5 mph - N/A   Clear